Regional Weather Roundup
Issued by NWS

Home | Current Version | Previous Version | Graphics & Text | Print | Product List | Glossary On
Versions: 1 2 3 4 5 6 7 8 9 10 11 12 13 14 15 16 17 18 19 20 21 22 23 24 25 26 27 28 29 30 31 32 33 34 35 36 37 38 39 40 41 42 43 44 45 46 47 48 49 50
000
ASUS43 KMPX 211410
RWRMN
WEATHER ROUNDUP FOR MINNESOTA
NATIONAL WEATHER SERVICE TWIN CITIES/CHANHASSEN MN
800 AM CST WED FEB 21 2018


NOTE: "FAIR" INDICATES FEW OR NO CLOUDS BELOW 12,000 FEET WITH NO
SIGNIFICANT WEATHER AND/OR OBSTRUCTIONS TO VISIBILITY. N/A MEANS
CURRENT SKY AND/OR WEATHER CONDITIONS ARE NOT AVAILABLE.

MNZ060>063-068>070-211500-
   Twin Cities Metro

CITY           SKY/WX    TMP DP  RH WIND       PRES   REMARKS
TWIN CITIES    FAIR       3  -1  83 SW3       30.56R
ST PAUL        FAIR       2  -1  88 CALM      30.58R
CRYSTAL        FAIR       2  -4  76 SW5       30.54R WCI  -8
BLAINE         CLEAR      3  -2  78 SW3       30.53R
LAKEVILLE      FAIR       1  -4  78 SW3       30.56R
EDEN PRAIRIE   FAIR       1  -4  79 W5        30.54R WCI  -9
SOUTH ST PAUL  FAIR       4  -2  75 S5        30.57R WCI  -6
LAKE ELMO      FAIR       3   0  85 CALM      30.55R
$$
MNZ001>005-007-008-013>017-022>024-027-028-211500-
   Northwest Minnesota

CITY           SKY/WX    TMP DP  RH WIND       PRES   REMARKS
BEMIDJI        FAIR      -4  -8  81 SW6       30.38R WCI -16
HALLOCK        FAIR      -9 -15  77 S7        30.37R WCI -24
ROSEAU         FAIR      -2  -8  78 SW12      30.34R WCI -20
WARROAD        FAIR      -2  -8  78 SW9       30.33R WCI -18
THIEF RVR FALL FAIR      -5 -11  75 SW14      30.39R WCI -25
CROOKSTON      FAIR      -9 -15  77 S9        30.43R WCI -27
FOSSTON        FAIR     -11 -17  77 S10       30.41R WCI -30
DETROIT LAKES  FAIR      -6  -9  84 SW7       30.42S WCI -20
MOORHEAD       FAIR     -11 -17  77 S7        30.48R WCI -26
PARK RAPIDS    FAIR      -8 -12  83 SW3       30.39R
MAHNOMEN       FAIR      -9 -14  79 S10       30.42R WCI -27
$$
MNZ006-009>011-018-025>026-211500-
   North Central Minnesota

CITY           SKY/WX    TMP DP  RH WIND       PRES   REMARKS
BAUDETTE       FAIR      -6 -10  83 SW5       30.32R WCI -17
FLAG ISLAND    FAIR      -4  -9  77 SW8       30.30R WCI -19
INTL FALLS     FAIR      -7 -10  87 SW7       30.34R WCI -21
WASKISH        FAIR       0  -8  71 SW12      30.36R WCI -18
BIG FORK       FAIR      -9 -15  77 S3        30.35R
LONGVILLE      FAIR     -11 -15  84 SW3       30.41R
GRAND RAPIDS   FAIR      -4  -8  83 S5        30.42R WCI -15
CRANE LAKE     FAIR      -6  -9  84 SE3       30.39R
ORR            FAIR      -6 -11  77 CALM      30.34R
COOK             N/A     -4  -8  84 SW5       30.37R WCI -15
WALKER         FAIR      -2  -8  75 SW6       30.39R WCI -14
$$
MNZ012-019>021-037-211500-
   Northeast Minnesota

CITY           SKY/WX    TMP DP  RH WIND       PRES   REMARKS
DULUTH         FAIR      -1  -6  79 W10       30.39R WCI -17
ELY            FAIR      -4  -8  84 CALM      30.37R
HIBBING        FAIR     -20 -24  82 CALM      30.39R
EVELETH        FAIR     N/A N/A N/A CALM      30.40R
DULUTH HARBOR  FAIR       0  -6  78 SW9       30.50R WCI -16
TWO HARBORS    FAIR       5  -2  72 W7        30.41R WCI  -7
GRAND MARAIS     N/A      7  -2  66 W6        30.44R WCI  -3
G MARAIS ARPRT FAIR       0  -8  71 CALM      30.30R
$$
MNZ029>031-032-039>041-046>048-054>057-064-211500-
   West Central Minnesota

CITY           SKY/WX    TMP DP  RH WIND       PRES   REMARKS
FERGUS FALLS   FAIR      -9 -15  77 CALM      30.48F
WHEATON        CLOUDY   -15 -20  76 SE6       30.51R WCI -29
MORRIS         CLOUDY    -9 -15  77 S8        30.50R WCI -26
ALEXANDRIA     FAIR      -7 -11  83 S7        30.46R WCI -21
ELBOW LAKE     FAIR     -12 -16  82 S8        30.48R WCI -29
WADENA         FAIR      -8 -11  84 SW6       30.43S WCI -21
GLENWOOD       FAIR      -8 -11  84 SW8       30.48R WCI -23
APPLETON       CLOUDY    -2  -9  71 S5        30.53R WCI -12
BENSON         CLOUDY    -6 -13  71 W6        30.52R WCI -18
ORTONVILLE     CLOUDY    -6 -11  77 CALM      30.50R
MADISON        CLOUDY     1  -8  66 SW8       30.52S WCI -12
WILLMAR        FAIR      -9 -15  77 CALM      30.53S
$$
MNZ033>034-036-042>043-049>051-058-059-211500-
   Central Minnesota

CITY           SKY/WX    TMP DP  RH WIND       PRES   REMARKS
ST CLOUD       FAIR      -8 -11  86 S5        30.50S WCI -19
SAUK CENTRE    FAIR      -6 -10  80 SW6       30.49R WCI -18
PAYNESVILLE    FAIR      -7 -10  85 W5        30.51R WCI -18
AITKIN         FAIR      -2  -8  78 SW3       30.42S
PINE RIVER     FAIR     -15 -18  84 CALM      30.45R
BRAINERD       FAIR      -8 -13  78 S3        30.44R
STAPLES        FAIR      -8 -11  84 W3        30.44R
LONG PRAIRIE   FAIR      -8 -13  77 S5        30.47R WCI -19
LITTLE FALLS   FAIR      -8 -17  65 CALM      30.49R
LITCHFIELD     FAIR      -2  -6  84 SW5       30.53R WCI -12
BUFFALO        FAIR      -2  -6  83 SW3       30.55R
MAPLE LAKE     FAIR      -2  -5  87 SW3       30.54R
HUTCHINSON     FAIR      -3  -7  84 CALM      30.54R
$$
MNZ037-044-045-052-053-211500-
   East Central Minnesota

CITY           SKY/WX    TMP DP  RH WIND       PRES   REMARKS
PRINCETON      FAIR      -2  -6  84 CALM      30.51R
MORA           FAIR      -9 -15  77 CALM      30.51S
CAMBRIDGE        N/A     -2  -9  71 CALM      30.53R
RUSH CITY      MOCLDY    -1  -5  82 SW5       30.52R WCI -11
MOOSE LAKE     FAIR      -8 -13  77 CALM      30.46R
HINCKLEY       FAIR      -4  -6  92 SW3       30.49R
CLOQUET        FAIR       0  -8  71 W10       30.42R WCI -17
MCGREGOR       FAIR      -2  -6  84 SW3       30.44S
$$
MNZ071>073-080-081-089-090-097-098-211500-
   Southwest Minnesota

CITY           SKY/WX    TMP DP  RH WIND       PRES   REMARKS
MONTEVIDEO     CLOUDY     1  -6  71 W6        30.53R WCI -10
GRANITE FALLS  CLOUDY    -3  -9  77 SW6       30.55S WCI -16
CANBY          CLOUDY     1  -8  67 W7        30.53R WCI -12
MARSHALL       CLOUDY    -5 -11  75 SW10      30.53R WCI -23
REDWOOD FALLS  CLOUDY    -1  -7  75 W3        30.56R
OLIVIA         CLOUDY    -2  -8  78 S5        30.54R WCI -12
PIPESTONE      CLOUDY    -8 -11  84 W5        30.48R FOG     WCI -19
WORTHINGTON    CLOUDY     2  -5  72 S3        30.52R
JACKSON        CLOUDY     1  -6  71 S7        30.53R WCI -11
TRACY          CLOUDY    -1  -7  76 SW7       30.52R WCI -14
SLAYTON        CLOUDY    -1  -7  74 W9        30.50R WCI -16
$$
MNZ065>067-074>077-082>085-091>093-211500-
   South Central Minnesota

CITY           SKY/WX    TMP DP  RH WIND       PRES   REMARKS
MANKATO        FAIR       3  -2  79 SW6       30.58R WCI  -8
NEW ULM        CLOUDY    -2  -8  78 SW3       30.56R
ST JAMES       CLOUDY     0  -6  78 CALM      30.57R
FAIRMONT       CLOUDY     0  -5  79 SW7       30.58R WCI -13
GLENCOE        FAIR       0  -5  78 CALM      30.55R
FARIBAULT      FAIR       1  -2  85 CALM      30.56R
OWATONNA       FAIR       0  -4  85 S3        30.56R
WASECA         FAIR       3  -2  78 CALM      30.57R
ALBERT LEA     FAIR       7   0  72 CALM      30.56R
$$
MNZ078>079-086>088-094>096-211500-
   Southeast Minnesota

CITY           SKY/WX    TMP DP  RH WIND       PRES   REMARKS
ROCHESTER      FAIR       4   0  83 W12       30.54R WCI -12
RED WING       FAIR       1  -6  71 CALM      30.57R
STANTON        FAIR       3  -3  77 SW3       30.55R
DODGE CENTER   FAIR       1  -2  85 SW5       30.54R WCI  -8
WINONA         FAIR      10   3  72 CALM      30.60R
AUSTIN         FAIR       7   1  78 NW3       30.55R
PRESTON        FAIR       7   1  79 CALM      30.56R
$$
ABBREVIATIONS USED IN REMARKS
   TC - TEMPERATURES IN CELSIUS
  WCI - WIND CHILL INDEX
   HX - HEAT INDEX
  VSB - VISIBILITY
$$




USA.gov is the U.S. government's official web portal to all federal, state and local government web resources and services.